GW5201 Weather Reports


time (UTC)temp
F
wind
direction
speed
knots
gust
knots
rain 1hr
in
rain 24hr
in
rain mn
in
humidity
%
barometer
mb
20260510153603 75 0 0.0 0.0 0.00 0.00 0.00 57 1013.5
20260510152703 74 0 0.0 0.0 0.00 0.00 0.00 60 1013.7
20260510151803 74 0 0.0 0.0 0.00 0.00 0.00 58 1013.7
20260510150903 74 0 0.0 0.0 0.00 0.00 0.00 59 1013.6
20260510150217 73 0 0.0 0.0 0.00 0.00 0.00 61 1013.4
20260510145617 73 0 0.0 0.0 0.00 0.00 0.00 62 1013.5
20260510144503 71 0 0.0 0.0 0.00 0.00 0.00 64 1013.5
20260510143603 70 0 0.0 0.0 0.00 0.00 0.00 69 1013.7
20260510142703 69 0 0.0 0.0 0.00 0.00 0.00 71 1013.6
20260510142018 69 0 0.0 0.0 0.00 0.00 0.00 71 1013.7
20260510140903 68 0 0.0 0.0 0.00 0.00 0.00 76 1013.7
20260510140003 66 0 0.0 0.0 0.00 0.00 0.00 74 1013.7
20260510135403 66 0 0.0 0.0 0.00 0.00 0.00 77 1013.6
20260510134503 65 0 0.0 0.0 0.00 0.00 0.00 77 1013.7
20260510133819 64 0 0.0 0.0 0.00 0.00 0.00 80 1013.8
20260510132703 63 0 0.0 0.0 0.00 0.00 0.00 80 1013.6
20260510131803 62 0 0.0 0.0 0.00 0.00 0.00 82 1013.5
20260510130903 60 0 0.0 0.0 0.00 0.00 0.00 87 1013.7
20260510130003 59 0 0.0 0.0 0.00 0.00 0.00 89 1013.7
20260510125616 59 0 0.0 0.0 0.00 0.00 0.00 91 1013.8
20260510124503 57 0 0.0 0.0 0.00 0.00 0.00 94 1013.7
20260510123603 55 0 0.0 0.0 0.00 0.00 0.00 95 1013.7
20260510122703 55 0 0.0 0.0 0.00 0.00 0.00 95 1013.6
20260510121803 54 0 0.0 0.0 0.00 0.00 0.00 96 1013.5
20260510120903 54 0 0.0 0.0 0.00 0.00 0.00 96 1013.3
20260510120003 54 0 0.0 0.0 0.00 0.00 0.00 96 1013.2
20260510115403 53 0 0.0 0.0 0.00 0.00 0.00 96 1013.2
20260510114503 53 0 0.0 0.0 0.00 0.00 0.00 96 1013.1
20260510113603 52 0 0.0 0.0 0.00 0.00 0.00 96 1012.9
20260510112703 52 0 0.0 0.0 0.00 0.00 0.00 96 1012.9
20260510111803 52 0 0.0 0.0 0.00 0.00 0.00 96 1012.8
20260510110903 51 0 0.0 0.0 0.00 0.00 0.00 96 1012.8
20260510110003 51 0 0.0 0.0 0.00 0.00 0.00 96 1012.8
20260510105403 51 0 0.0 0.0 0.00 0.00 0.00 96 1012.6
20260510104503 50 0 0.0 0.0 0.00 0.00 0.00 96 1012.5
20260510103603 50 0 0.0 0.0 0.00 0.00 0.00 96 1012.5
20260510102703 50 0 0.0 0.0 0.00 0.00 0.00 96 1012.2
20260510102017 50 0 0.0 0.0 0.00 0.00 0.00 96 1012.1
20260510100903 50 0 0.0 0.0 0.00 0.00 0.00 96 1012.3
20260510100003 50 0 0.0 0.0 0.00 0.00 0.00 96 1012.0
20260510095403 50 0 0.0 0.0 0.00 0.00 0.00 96 1012.0
20260510094503 50 0 0.0 0.0 0.00 0.00 0.00 96 1012.1
20260510093603 49 0 0.0 0.0 0.00 0.00 0.00 96 1011.8
20260510092703 49 0 0.0 0.0 0.00 0.00 0.00 96 1011.8
20260510091803 49 0 0.0 0.0 0.00 0.00 0.00 96 1011.9
20260510090903 49 0 0.0 0.0 0.00 0.00 0.00 96 1012.1
20260510090003 49 0 0.0 0.0 0.00 0.00 0.00 96 1012.0
20260510085403 49 0 0.0 0.0 0.00 0.00 0.00 97 1012.1
20260510084503 49 0 0.0 0.0 0.00 0.00 0.00 97 1012.3
20260510083603 47 0 0.0 0.0 0.00 0.00 0.00 96 1011.9
20260510082703 46 0 0.0 0.0 0.00 0.00 0.00 95 1011.5
20260510081803 46 0 0.0 0.0 0.00 0.00 0.00 95 1011.3
20260510081119 46 0 0.0 0.0 0.00 0.00 0.00 95 1011.3
20260510080219 46 0 0.0 0.0 0.00 0.00 0.00 95 1011.3
20260510075403 47 0 0.0 0.0 0.00 0.00 0.00 96 1011.3
20260510074717 46 0 0.0 0.0 0.00 0.00 0.00 95 1011.3
20260510073603 46 0 0.0 0.0 0.00 0.00 0.00 95 1011.3
20260510072703 47 0 0.0 0.0 0.00 0.00 0.00 95 1011.1
20260510071803 46 0 0.0 0.0 0.00 0.00 0.00 95 1011.0
20260510070903 47 0 0.0 0.0 0.00 0.00 0.00 95 1011.0
20260510070003 46 0 0.0 0.0 0.00 0.00 0.00 95 1010.8
20260510065403 46 0 0.0 0.0 0.00 0.00 0.00 95 1010.7
20260510064503 47 0 0.0 0.0 0.00 0.00 0.00 95 1010.8
20260510063816 47 0 0.0 0.0 0.00 0.00 0.00 95 1010.8
20260510062703 47 0 0.0 0.0 0.00 0.00 0.00 95 1011.0
20260510061803 47 0 0.0 0.0 0.00 0.00 0.00 95 1011.0
20260510060903 47 0 0.0 0.0 0.00 0.00 0.00 94 1011.1
20260510060003 47 0 0.0 0.0 0.00 0.00 0.00 94 1010.9
20260510055403 47 0 0.0 0.0 0.00 0.00 0.00 94 1011.0
20260510054503 48 0 0.0 0.0 0.00 0.00 0.00 94 1011.2
20260510053603 48 0 0.0 0.0 0.00 0.00 0.00 94 1011.2
20260510052703 48 0 0.0 0.0 0.00 0.00 0.00 94 1011.3
20260510051803 48 0 0.0 0.0 0.00 0.00 0.00 94 1011.4
20260510051118 48 0 0.0 0.0 0.00 0.00 0.00 95 1011.4
20260510050217 48 0 0.0 0.0 0.00 0.00 0.00 94 1011.5
20260510045403 48 0 0.0 0.0 0.00 0.00 0.00 94 1011.4
20260510044503 48 0 0.0 0.0 0.00 0.00 0.00 94 1011.6
20260510043603 49 0 0.0 0.0 0.00 0.00 0.00 94 1011.5
20260510042703 49 0 0.0 0.0 0.00 0.00 0.00 94 1011.6
20260510041803 49 0 0.0 0.0 0.00 0.00 0.00 94 1011.6
20260510040903 49 0 0.0 0.0 0.00 0.00 0.00 94 1011.7
20260510040003 49 0 0.0 0.0 0.00 0.00 0.00 93 1011.7
20260510035403 49 0 0.0 0.0 0.00 0.00 0.00 94 1011.7
20260510034503 50 0 0.0 0.0 0.00 0.00 0.00 94 1011.6
20260510033603 50 0 0.0 0.0 0.00 0.00 0.00 94 1011.5
20260510032703 50 0 0.0 0.0 0.00 0.00 0.00 93 1011.5
20260510031803 50 0 0.0 0.0 0.00 0.00 0.00 93 1011.4
20260510031117 50 0 0.0 0.0 0.00 0.00 0.00 94 1011.3
20260510030003 51 0 0.0 0.0 0.00 0.00 0.00 93 1011.2
20260510025403 51 0 0.0 0.0 0.00 0.00 0.00 93 1011.2
20260510024503 51 0 0.0 0.0 0.00 0.00 0.00 93 1011.1
20260510023603 51 0 0.0 0.0 0.00 0.00 0.00 93 1011.1
20260510022703 51 0 0.0 0.0 0.00 0.00 0.00 93 1011.2
20260510021803 52 0 0.0 0.0 0.00 0.00 0.00 93 1011.2
20260510021117 52 0 0.0 0.0 0.00 0.00 0.00 93 1011.1
20260510020003 52 0 0.0 0.0 0.00 0.00 0.00 92 1011.0
20260510015403 52 0 0.0 0.0 0.00 0.00 0.00 91 1011.0
20260510014503 52 0 0.0 0.0 0.00 0.00 0.00 92 1011.0
20260510013603 53 0 0.0 0.0 0.00 0.00 0.00 92 1011.0
20260510012703 53 0 0.0 0.0 0.00 0.00 0.00 92 1011.0
20260510011803 54 0 0.0 0.0 0.00 0.00 0.00 92 1010.9
20260510011117 54 0 0.0 0.0 0.00 0.00 0.00 91 1010.7
20260510010003 54 0 0.0 0.0 0.00 0.00 0.00 92 1010.7
20260510005403 54 0 0.0 0.0 0.00 0.00 0.00 90 1010.7
20260510004503 54 0 0.0 0.0 0.00 0.00 0.00 90 1010.6
20260510003603 54 0 0.0 0.0 0.00 0.00 0.00 90 1010.5
20260510002703 54 0 0.0 0.0 0.00 0.00 0.00 89 1010.6
20260510001803 55 0 0.0 0.0 0.00 0.00 0.00 88 1010.6
20260510000903 55 0 0.0 0.0 0.00 0.00 0.00 88 1010.5
20260510000003 56 0 0.0 0.0 0.00 0.00 0.00 86 1010.6
20260509235403 56 0 0.0 0.0 0.00 0.00 0.00 86 1010.5
20260509234719 57 0 0.0 0.0 0.00 0.00 0.00 85 1010.5
20260509233603 57 0 0.0 0.0 0.00 0.00 0.00 85 1010.5
20260509232703 58 0 0.0 0.0 0.00 0.00 0.00 84 1010.5
20260509231803 58 0 0.0 0.0 0.00 0.00 0.00 82 1010.4
20260509230903 58 0 0.0 0.0 0.00 0.00 0.00 81 1010.4
20260509230219 59 0 0.0 0.0 0.00 0.00 0.00 80 1010.3
20260509225403 59 0 0.0 0.0 0.00 0.00 0.00 80 1010.3
20260509224503 59 0 0.0 0.0 0.00 0.00 0.00 80 1010.4
20260509223603 58 0 0.0 0.0 0.00 0.00 0.00 82 1010.5
20260509222703 58 0 0.0 0.0 0.00 0.00 0.00 82 1010.6
20260509221803 58 0 0.0 0.0 0.00 0.00 0.00 82 1010.5
20260509221116 58 0 0.0 0.0 0.00 0.00 0.00 82 1010.5
20260509220219 58 0 0.0 0.0 0.00 0.00 0.00 83 1010.6
20260509215403 58 0 0.0 0.0 0.00 0.00 0.00 84 1010.5
20260509214503 58 0 0.0 0.0 0.00 0.00 0.00 84 1010.7
20260509213817 58 0 0.0 0.0 0.00 0.00 0.00 84 1010.6
20260509212703 58 0 0.0 0.0 0.00 0.00 0.00 84 1010.6
20260509211803 58 0 0.0 0.0 0.00 0.00 0.00 83 1010.6
20260509210903 58 0 0.0 0.0 0.00 0.00 0.00 83 1010.6
20260509210003 59 0 0.0 0.0 0.00 0.00 0.00 82 1010.4
20260509205403 59 0 0.0 0.0 0.00 0.00 0.00 79 1010.4
20260509204503 60 0 0.0 0.0 0.00 0.00 0.00 77 1010.5
20260509203817 60 0 0.0 0.0 0.00 0.00 0.00 77 1010.6
20260509202703 61 0 0.0 0.0 0.00 0.00 0.00 77 1010.5
20260509201803 61 0 0.0 0.0 0.00 0.00 0.00 80 1010.5
20260509200903 60 0 0.0 0.0 0.00 0.00 0.00 80 1010.5
20260509200003 59 0 0.0 0.0 0.00 0.00 0.00 82 1010.5
20260509195403 59 0 0.0 0.0 0.00 0.00 0.00 82 1010.3
20260509194717 59 0 0.0 0.0 0.00 0.00 0.00 82 1010.4
20260509193603 58 0 0.0 0.0 0.00 0.00 0.00 81 1010.8
20260509192703 59 0 0.0 0.0 0.00 0.00 0.00 82 1010.9
20260509191803 59 0 0.0 0.0 0.00 0.00 0.00 80 1011.0
20260509190903 59 0 0.0 0.0 0.00 0.00 0.00 79 1011.1
20260509190003 58 0 0.0 0.0 0.00 0.00 0.00 79 1011.3
20260509185403 58 0 0.0 0.0 0.00 0.00 0.00 78 1011.4
20260509184503 59 0 0.0 0.0 0.00 0.00 0.00 78 1011.4
20260509183816 59 0 0.0 0.0 0.00 0.00 0.00 77 1011.4
20260509182703 59 0 0.0 0.0 0.00 0.00 0.00 75 1011.3
20260509181803 60 0 0.0 0.0 0.00 0.00 0.00 74 1011.4
20260509180903 60 0 0.0 0.0 0.00 0.00 0.00 73 1011.7
20260509180003 62 0 0.0 0.0 0.00 0.00 0.00 73 1011.6
20260509175403 62 0 0.0 0.0 0.00 0.00 0.00 73 1011.5
20260509174716 63 0 0.0 0.0 0.00 0.00 0.00 73 1011.6
20260509173603 63 0 0.0 0.0 0.00 0.00 0.00 72 1011.4
20260509172703 63 0 0.0 0.0 0.00 0.00 0.00 70 1011.4
20260509171803 63 0 0.0 0.0 0.00 0.00 0.00 69 1011.3
20260509170903 63 0 0.0 0.0 0.00 0.00 0.00 69 1011.3
20260509170003 63 0 0.0 0.0 0.00 0.00 0.00 67 1011.4
20260509165403 63 0 0.0 0.0 0.00 0.00 0.00 70 1011.5
20260509164503 63 0 0.0 0.0 0.00 0.00 0.00 68 1011.4
20260509163603 63 0 0.0 0.0 0.00 0.00 0.00 69 1011.4
20260509162703 63 0 0.0 0.0 0.00 0.00 0.00 65 1011.3
20260509161803 63 0 0.0 0.0 0.00 0.00 0.00 67 1011.5
20260509160903 64 0 0.0 0.0 0.00 0.00 0.00 68 1011.6
20260509160003 64 0 0.0 0.0 0.00 0.00 0.00 69 1011.8
20260509155403 64 0 0.0 0.0 0.00 0.00 0.00 68 1011.9
20260509154503 63 0 0.0 0.0 0.00 0.00 0.00 69 1012.3
20260509153819 63 0 0.0 0.0 0.00 0.00 0.00 69 1012.3